Regional Weather Roundup
Issued by NWS

Home | Current Version | Previous Version | Text Only | Print | Product List | Glossary Off
Versions: 1 2 3 4 5 6 7 8 9 10 11 12 13 14 15 16 17 18 19 20 21 22 23 24 25 26 27 28 29 30 31 32 33 34 35 36 37 38 39 40 41 42 43 44 45 46 47 48 49 50

000
ASUS45 KBOU 110110
RWRCO

WEATHER ROUNDUP FOR COLORADO
NATIONAL WEATHER SERVICE DENVER/BOULDER CO
700 PM MDT THU JUL 10 2014

NOTE: "FAIR" INDICATES FEW OR NO CLOUDS BELOW 12000 FEET WITH NO
SIGNIFICANT WEATHER AND/OR OBSTRUCTIONS TO VISIBILITY.

COZ001>005-013-030-031-110200-
...NORTHWEST COLORADO...

CITY           SKY/WX    TMP DP  RH WIND       PRES   REMARKS
CRAIG          MOSUNNY   78  46  32 SW6       30.06R
HAYDEN         MOSUNNY   82  43  24 SW12      30.09S
MEEKER         SUNNY     80  50  34 S6        30.08S
MOUNT WERNER   NOT AVBL
STEAMBOAT SPGS MOSUNNY   81  45  28 CALM      30.11F
WALDEN         CLOUDY    72  45  37 NW3       30.22R
$$

COZ006>008-011-110200-
...WEST CENTRAL VALLEYS...

CITY           SKY/WX    TMP DP  RH WIND       PRES   REMARKS
GRAND JUNCTION MOSUNNY   83  51  33 W10       29.94R
MONTROSE       PTSUNNY   84  48  28 CALM      30.04R THUNDER
EAGLE          PTSUNNY   79  48  34 E12G18    30.09R
RIFLE          MOSUNNY   90  44  20 W13       29.97S
DELTA          PTSUNNY   90  49  24 S8        29.97S
NUCLA          NOT AVBL
$$

COZ017>023-064>068-110200-
...SOUTHWEST COLORADO...

CITY           SKY/WX    TMP DP  RH WIND       PRES   REMARKS
DURANGO        PTSUNNY   75  56  51 N6        30.13R
CORTEZ         SUNNY     84  46  26 S5        30.05S
PAGOSA SPRINGS PTSUNNY   71  49  45 CALM      30.24R
TELLURIDE      DRIZZLE   64  46  52 E7        30.34S
WOLF CREEK PAS NOT AVBL
$$

COZ009-010-012-014-032>034-037-058>063-110200-
...CENTRAL COLORADO...

CITY           SKY/WX    TMP DP  RH WIND       PRES   REMARKS
ASPEN          PTSUNNY   76  42  29 S20       30.19R
BUENA VISTA    LGT RAIN  63  47  57 W14G31    30.26F
COPPER MTN     CLOUDY    55  37  50 E5        30.57F THUNDER
BERTHOUD PASS  CLOUDY    48  34  57 SW12      30.63S
COTTONWOOD PAS CLOUDY    55  46  71 W18G28    30.42S
GUNNISON       CLOUDY    70  46  43 N9        30.26R
KREMMLING      RAIN      63  55  77 N5        30.20R
LEADVILLE      LGT RAIN  58  46  64 S17       30.41R
SALIDA         CLOUDY   N/A N/A N/A N15G23    30.26R
SUNLIGHT       MOSUNNY   70  46  43 CALM      30.47R THUNDER
WILKERSON PASS RAIN      55  41  58 W10G18    30.55R
$$

COZ069>075-110200-
...SAN LUIS VALLEY/SANGRE DE CRISTO MOUNTAINS...

CITY           SKY/WX    TMP DP  RH WIND       PRES   REMARKS
ALAMOSA        MOSUNNY   79  45  29 SE14      30.18R
LA VETA PASS   CLOUDY    64  39  39 CALM      30.42S
SAGUACHE       NOT AVBL
$$

COZ035-036-038>040-110200-
...NORTHERN COLORADO FRONT RANGE...

CITY           SKY/WX    TMP DP  RH WIND       PRES   REMARKS
DENVER INTL AP PTSUNNY   91  39  16 SW6       29.96S
DMNS CITY PARK   N/A     84  47  27 SW7       29.98R
AURORA         PTSUNNY   84  49  30 SW10      30.01R
FRONT RANGE AP PTSUNNY   91  41  17 SW9       29.99R
ERIE MUNI ARPT PTSUNNY   87  46  23 W6        29.96R
BOULDER MUN AP PTSUNNY   86  45  23 W13G18    29.97R
CENTENNIAL     PTSUNNY   87  43  21 NW6       30.02R
BROOMFIELD     PTSUNNY   84  46  26 W7        30.01R
FORT COLLINS   PTSUNNY   88  48  25 W3        29.93S
LONGMONT       PTSUNNY   88  47  24 SW7       29.96S
$$

COZ041-046-047-076>085-087-088-110200-
...PIKES PEAK/PALMER DIVIDE AND SOUTHERN FOOTHILLS...

CITY           SKY/WX    TMP DP  RH WIND       PRES   REMARKS
COLO. SPRINGS  PTSUNNY   87  32  14 S10       30.06S
A. F. ACADEMY  PTSUNNY   80  44  27 N8        30.09S
ELLICOTT       NOT AVBL
FALCON         PTSUNNY   83  31  15 S6        30.13S
FORT CARSON    PTSUNNY   87  35  15 S9        30.02S
LIMON          MOSUNNY   88  36  15 SE10      29.99S
MONUMENT HILL  PTSUNNY   79  36  21 S6        30.13S
TRINIDAD       MOSUNNY   91  39  16 S18G30    30.00S
$$

COZ042>045-048>051-090-091-110200-
...NORTHEAST COLORADO...

CITY           SKY/WX    TMP DP  RH WIND       PRES   REMARKS
GREELEY ARPT   NOT AVBL
AKRON          MOSUNNY   90  54  29 SE21G28   29.93S
BURLINGTON     SUNNY     87  66  49 E15       29.92S
WRAY             N/A     92  58  31 SE17G23   29.89R
STERLING       MOSUNNY   91  61  35 S6        29.86S
HOLYOKE        MOSUNNY   86  63  45 SE8       29.90R
FORT MORGAN    MOSUNNY   88  52  28 E8        29.91R
$$

COZ086-089-092>099-110200-
...SOUTHEAST COLORADO...

CITY           SKY/WX    TMP DP  RH WIND       PRES   REMARKS
PUEBLO         MOSUNNY   95  37  13 SE13      29.91S
LA JUNTA       SUNNY     99  39  12 SE10      29.87F
LAMAR          SUNNY     98  46  17 S21       29.83S
SPRINGFIELD      N/A     91  49  23 S22G29    29.95R
$$



USA.gov is the U.S. government's official web portal to all federal, state and local government web resources and services.